Weather in Edinburgh

United Kingdom     55˚57′00″N   3˚12′29″W
temp.,
°C
wind,
m/s
gust,
m/s
humid.,
%
clouds,
%
prec.,
mm/h
press.,
hPa
HPBL,
m
1 december, tue
tue100:00+4˚wnw37758 0.0 1025273
03:00+4˚wsw348092 0.0 1026134
06:00+3˚wsw238177 0.0 102798
09:00+4˚sw248295 0.0 1027175
12:00+6˚wsw237798 0.0 1027266
15:00+6˚wsw398591 0.0 1025403
18:00+6˚sw4109276 0.0 1024356
21:00+7˚sw4129397 0.0 1023561
2 december, wed
wed200:00+8˚sw4119198 0.0 1020408
03:00+8˚sw5119099 0.0 1017570
06:00+9˚wsw6128899 0.4 1014866
09:00+6˚wsw5127355 0.1 1013929
12:00+7˚wsw6126742 0.1 10101446
15:00+5˚wsw6126885 0.3 10081318
18:00+4˚sw5117676 0.5 10051163
21:00+3˚sw7129565 1.1 1001772
3 december, thu
thu300:00+3˚sw6118468 3.1 998867
03:00+3˚sw6118281 0.4 994788
06:00+2˚sw5107675 0.5 991681
09:00+2˚sw5107571 0.0 990588
12:00+3˚sw477346 0.0 988522
15:00+2˚s237316 0.0 986289
18:00+1˚se01778 0.0 986110
21:00nw12810 0.0 98673
4 december, fri
fri400:00nnw12841 0.0 98679
03:00nw248144 0.0 985183
06:00nw257161 0.0 985238
09:00nnw41085100 0.3 984514
12:00+2˚nnw61196100 2.1 983492
15:00+4˚n71289100 0.8 982624
18:00+6˚ne91488100 1.7 9831061
21:00+7˚ne81385100 2.6 986945
5 december, sat
sat500:00+6˚ene81387100 4.8 988977
03:00+7˚ne91585100 1.9 9891118
06:00+6˚ne81391100 8.1 9901061
09:00+7˚ene7127790 2.1 9941166
12:00+7˚e497392 2.2 9961041
15:00+6˚ne4893100 2.3 998650
18:00+7˚ne91490100 7.8 9991161
21:00+6˚ne111591100 6.1 10001131